Regional Weather Roundup
Issued by NWS

Home | Current Version | Previous Version | Text Only | Print | Product List | Glossary On
Versions: 1 2 3 4 5 6 7 8 9 10 11 12 13 14 15 16 17 18 19 20 21 22 23 24 25 26 27 28 29 30 31 32 33 34 35 36 37 38 39 40 41 42 43 44 45 46 47 48 49 50
000
ASUS43 KIND 200709
RWRIN

WEATHER ROUNDUP FOR INDIANA
NATIONAL WEATHER SERVICE INDIANAPOLIS IN
300 AM EDT WED SEP 20 2017

NOTE: "FAIR" INDICATES FEW OR NO CLOUDS BELOW 12,000 FEET WITH NO
SIGNIFICANT WEATHER AND/OR OBSTRUCTIONS TO VISIBILITY.

* - STATION DOES NOT REPORT WEATHER SUCH AS PRECIPITATION OR FOG.

+ - STATION NOT QUALITY CONTROLLED BY THE NATIONAL WEATHER SERVICE.
    USE DATA WITH CAUTION...ESPECIALLY DEWPOINT AND RELATIVE
    HUMIDITY OBSERVATIONS.

INZ001>003-010>013-019-020-200800-
NORTHWEST INDIANA

CITY           SKY/WX    TMP DP  RH WIND       PRES   REMARKS
GARY /AIRPORT/ FOG       60  60  99 CALM      29.92F VSB 1
KNOX *+        CLOUDY    59  59 100 CALM      29.93S VSB 1/4
LA PORTE +     FOG       61  61  99 CALM      29.94S VSB<1/4
MICHIGAN CITY+ FOG       59  59 100 CALM      29.93F VSB 1/4
MONTICELLO +   CLEAR     64  62  95 CALM      29.92F
RENSSELAER +   FOG       61  55  82 CALM      29.93S VSB 1
VALPARAISO     FOG       62  62 100 CALM      29.93F VSB 1/4

$$

LMZ046-743>745-200800-
SOUTHERN LAKE MICHIGAN

STATION/POSITION TIME  TEMP    WIND        PRES    WAVE
                       AIR SEA DIR/SP/G            HT
                 (UTC) (F)     (DEG/KT/KT) (MB)    (FT)
BURNS HARBOR     0702   67     140/  4/  9 1013.2
MICHIGAN CITY    0640   64     130/  7/  8   N/A
5NW MICH CITY    0700   66 69  160/  6/  6   N/A     1

$$

INZ004-005-014>016-021>024-200800-
NORTH CENTRAL INDIANA

CITY           SKY/WX    TMP DP  RH WIND       PRES   REMARKS
GOSHEN         FOG       67  64  90 S5        29.94S VSB 1/2
LOGANSPORT +   PTCLDY    61  59  94 CALM      29.94F FOG
PERU/GRISSOM   CLEAR     65  65 100 CALM      29.93F
ROCHESTER +    CLEAR     63  63 100 CALM      29.94F
SOUTH BEND     FOG       60  60 100 CALM      29.93F VSB 1/2
WARSAW +       LGT RAIN  64  64 100 CALM      29.94S VSB 1/4

$$

INZ006>009-017-018-025>027-200800-
NORTHEAST INDIANA

CITY           SKY/WX    TMP DP  RH WIND       PRES   REMARKS
AUBURN +       FOG       64  63  94 CALM      29.95F VSB 1/4
FORT WAYNE     FOG       63  62  97 S5        29.95F VSB 1
HUNTINGTON +   PTCLDY    65  64  96 CALM      29.94F FOG
KENDALLVILLE + CLOUDY    66  66 100 CALM      29.95F FOG

$$

INZ028-029-035-036-043>045-051>053-200800-
WEST CENTRAL INDIANA

CITY           SKY/WX    TMP DP  RH WIND       PRES   REMARKS
CRAWFORDSVL +  CLEAR     63  63 100 CALM      29.94  FOG
GREENCASTLE +  FOG       63  63 100 CALM      29.95S VSB 1/2
LAFAYETTE      CLEAR     62  62 100 CALM      29.92F
TERRE HAUTE    FOG       65  64  97 CALM      29.93S VSB 3/4

$$

INZ030>032-037>040-046>048-054>057-064-065-200800-
CENTRAL INDIANA

CITY           SKY/WX    TMP DP  RH WIND       PRES   REMARKS
CP ATTERBURY + CLOUDY    63  61  94 CALM      29.96S VSB<1/4
FISHERS *+     CLEAR     64  64 100 SE5       29.95S
FRANKFORT +    PTCLDY    64  64  97 CALM      29.95F FOG
GREENWOOD *+   PTCLDY    70  68  95 SE3       29.97S
INDIANAPOLIS   MOCLDY    67  66  97 SE5       29.94F
-EAGLE CREEK   PTCLDY    68  66  93 SE3       29.94S
KOKOMO +       PTCLDY    64  63  96 S3        29.95F
MT COMFORT *+    N/A    N/A N/A N/A MISG        N/A
SHELBYVILLE    CLEAR     65  62  90 SE6       29.95S FOG
ZIONSVILLE +   FOG       62  62 100 CALM      29.96S VSB 1/2

$$

INZ033-034-041-042-049-050-058-059-200800-
EAST CENTRAL INDIANA

CITY           SKY/WX    TMP DP  RH WIND       PRES   REMARKS
MUNCIE         PTCLDY    69  65  86 S5        29.95F
RICHMOND +     CLOUDY    63  63 100 S3        29.99S FOG

$$

INZ060-061-067>069-081>083-085>088-200800-
SOUTHWEST INDIANA

CITY           SKY/WX    TMP DP  RH WIND       PRES   REMARKS
EVANSVILLE     CLEAR     70  68  93 CALM      29.94S
HUNTINGBURG +    N/A    N/A N/A N/A MISG        N/A
WASHINGTON +   CLEAR     68  66  94 S5        29.93S FOG

$$

INZ062-063-066-070>080-084-089>092-200800-
SOUTH CENTRAL AND SOUTHEAST INDIANA

CITY           SKY/WX    TMP DP  RH WIND       PRES   REMARKS
BEDFORD +      CLEAR     66  64  94 S3        29.95  FOG
BLOOMINGTON    CLEAR     67  65  93 CALM      29.95F FOG
MADISON *+       N/A     63  61  94 CALM      29.99F VSB 1/4
NORTH VERNON + CLEAR     61  61 100 CALM      29.97F FOG
SEYMOUR +      FOG       64  64 100 CALM      29.96S VSB 1/4

$$





USA.gov is the U.S. government's official web portal to all federal, state and local government web resources and services.